{"data":{"norad_id":58760,"epoch":"2026-09-22T21:39:34.966656Z","epoch_age_seconds":43071,"freshness":"FRESH","line1":"1 58760U 24009C   26265.90248804  .00005924  00000+0  28844-3 0  9995","line2":"2 58760  49.9773  47.0278 0003800 320.2378  39.8296 15.19637195149548","mean_motion":15.19637195,"eccentricity":0.00038,"inclination_deg":49.9773,"raan_deg":47.0278,"arg_perigee_deg":320.2378,"mean_anomaly_deg":39.8296,"bstar":0.00028844,"rev_number":14954,"period_min":94.759460003873,"perigee_km":504.31991677756,"apogee_km":509.55257244346,"semimajor_km":6885.0732446105,"source":"CELESTRAK","updated_at":"2026-09-23T09:00:18.961870Z"}}